Regional Weather Roundup
Issued by NWS Upton, NY

Current Version | Previous Version | Text Only | Print | Product List | Glossary On
Versions: 1 2 3 4 5 6 7 8 9 10 11 12 13 14 15 16 17 18 19 20 21 22 23 24 25 26 27 28 29 30 31 32 33 34 35 36 37 38 39 40 41 42 43 44 45 46 47 48 49 50
000
ASUS41 KOKX 301609
RWROKX

REGIONAL WEATHER ROUNDUP
NATIONAL WEATHER SERVICE NEW YORK NY
1200 PM EDT THU JUL 30 2015

NOTE: "FAIR" INDICATES FEW OR NO CLOUDS BELOW 12,000 FEET WITH NO
SIGNIFICANT WEATHER AND/OR OBSTRUCTIONS TO VISIBILITY.

NYZ071-072-176-178-NJZ106-104-301700-
NEW YORK CITY METRO AREA


CITY           SKY/WX    TMP DP  RH WIND       PRES   REMARKS
CENTRAL PARK   CLOUDY    83  72  69 SW6       29.91F
LAGUARDIA APRT CLOUDY    85  72  65 S9        29.87F HX  91
KENNEDY INTL   PTSUNNY   83  75  77 S15       29.90F HX  90
NEWARK/LIBERTY CLOUDY    86  75  69 S10       29.87F HX  95
BRNX BOT. GARD   N/A     81  73  78 NE1       29.90S
TETERBORO      CLOUDY    83  73  72 S12G21    29.87S
$$

NYZ177-179-078>081-301700-
LONG ISLAND NEW YORK

CITY           SKY/WX    TMP DP  RH WIND       PRES   REMARKS
FARMINGDALE    PTSUNNY   81  76  84 S16       29.90F
ISLIP          CLOUDY    78  75  90 SW13G22   29.89S
SHIRLEY        CLOUDY    79  74  84 SW12      29.91S
WESTHAMPTON    CLOUDY    79  75  87 SW9G21    29.92F
MONTAUK POINT    N/A     81  74  79 S9G18     29.92S
$$

NYZ052-065-067-301700-
HUDSON VALLEY

CITY           SKY/WX    TMP DP  RH WIND       PRES   REMARKS
WHITE PLAINS   PTSUNNY   80  73  79 S6        29.89S
NEWBURGH       PTSUNNY   84  75  74 W12       29.88S HX  92
MONTGOMERY     CLOUDY    84  75  74 SW10      29.87S HX  92
POUGHKEEPSIE   CLOUDY    86  73  65 S8        29.84F HX  93
ALBANY         PTSUNNY   87  72  60 S14       29.80F HX  93
$$

NJZ001-105-106-008-010-013-015-019>022-104-301700-
NEW JERSEY

CITY           SKY/WX    TMP DP  RH WIND       PRES   REMARKS
NEWARK/LIBERTY CLOUDY    86  75  69 S10       29.87F HX  95
TETERBORO      CLOUDY    83  73  72 S12G21    29.87S
CALDWELL       CLOUDY    82  73  74 SW3       29.88S
MORRISTOWN     CLOUDY    84  75  74 W9G15     29.89S HX  92
SOMERVILLE     CLOUDY    84  74  71 VRB5      29.87S HX  91
SUSSEX         CLOUDY    81  73  76 VRB7      29.88S
ANDOVER          N/A     80  74  81 SW9       29.90S
TRENTON        CLOUDY    87  74  64 SW12G20   29.89R HX  95
MILLVILLE      MOSUNNY   85  75  72 SW10G18   29.92F HX  93
ATLANTIC CITY  MOSUNNY   85  74  69 S15G21    29.92F HX  92
WRIGHTSTOWN    PTSUNNY   87  75  67 SW12G20   29.87S HX  97
TOMS RIVER       N/A     88  73  62 SW15G21   29.91S HX  96
BELMAR         PTSUNNY   86  72  62 SW8       29.90S HX  92
$$

PAZ047>061-062-071-301700-
EASTERN PENNSYLVANIA

CITY           SKY/WX    TMP DP  RH WIND       PRES   REMARKS
PHILADELPHIA   CLOUDY    87  73  62 SW13G22   29.90S HX  94
ALLENTOWN      PTSUNNY   85  75  72 SW10      29.89S HX  93
SCRANTON       HVY RAIN  79  73  82 SW8       29.89S
$$

CTZ002-004>006-009-010-012-RIZ004-006-007-MAZ004-011-015-301700-
SOUTHERN NEW ENGLAND
 IN CT

CITY           SKY/WX    TMP DP  RH WIND       PRES   REMARKS
BRADLEY INTL   CLOUDY    85  72  65 SW12      29.85F HX  91
HARTFORD       CLOUDY    85  73  67 S12G21    29.85F HX  91
DANBURY        CLOUDY    81  71  71 SW10      29.90S
WTRBRY/OXFORD  CLOUDY    81  70  69 S12       29.92S HAZE
BRIDGEPORT     PTSUNNY   84  73  69 SW14      29.88F HX  90
MERIDEN        CLOUDY    85  72  65 S12       29.87F HX  91
NEW HAVEN      PTSUNNY   82  73  74 S12G18    29.89S
CHESTER        CLOUDY    81  73  78 S8        29.91F
GROTON         PTSUNNY   79  73  82 SW13      29.89S
WILLIMANTIC    PTSUNNY   85  72  65 S13G20    29.87F HX  91

 IN RI

CITY           SKY/WX    TMP DP  RH WIND       PRES   REMARKS
PROVIDENCE     PTSUNNY   86  73  65 SW14      29.88S HX  93
BLOCK ISLAND     N/A     81  75  83 SW18G26   29.93S
WESTERLY       MOSUNNY   81  73  76 SW14      29.90F

 IN MA

CITY           SKY/WX    TMP DP  RH WIND       PRES   REMARKS
BOSTON         CLOUDY    89  70  53 SW17      29.83F HX  94
WORCESTER      PTSUNNY   81  70  69 S12       29.90S
WESTFIELD      PTSUNNY   83  73  72 SW13G20   29.84F
PROVINCETOWN   MOSUNNY   82  70  65 S17       29.87F
NANTUCKET      MOSUNNY   78  72  81 SW16      29.92F
$$

ANZ330-335-338-340-345-350-353-355-301700-
COASTAL MARINE OBSERVATIONS


STATION/POSITION TIME  SKY/WX   TEMP    WIND        PRES    VSBY  WAVE
                                AIR SEA DIR/SP/G                  HT/PER
                 (UTC)          (F)     (DEG/KT/KT) (MB)    (MI)  (FT/S)
NY HARB ENTRANCE 1550            78 77  200/ 17/ 21 1011.8          4/ 5
4S FIRE IS       NOT AVBL
20S FIRE ISLAND  1550            76 75  200/ 16/ 17 1012.6          4/ 5
GREAT SOUTH BAY  1530            78 81  200/ 16/ 17   N/A
23SW MTP         1550            76 74  220/ 16/ 17 1012.6          4/ 5
HUDSON CANYON    NOT AVBL
KINGS POINT      1500            78 70  220/ 12/ 13 1011.5
EXECUTION ROCKS  1500            78     210/  6/ 10   N/A
CENTRAL LI SOUND NOT AVBL
EASTERN LI SOUND 1500            77 69  210/  8/ 10   N/A
ROBBINS REEF     1500            78     170/  9/ 11 1011.0
$$


>>>>>>>>>>>>>>>>>>>>>>>>>>>> KEY <<<<<<<<<<<<<<<<<<<<<<<<<<<
>                                                          <
>     SKY/WX - SKY CONDITION/PRESENT WEATHER               <
>     TMP    - TEMPERATURE IN FAHRENHEIT                   <
>     DP     - DEWPOINT IN FAHRENHEIT                      <
>     RH     - RELATIVE HUMIDITY IN PERCENT                <
>     WIND   - DIRECTION AND SPEED IN MPH                  <
>     PRES   - MEAN SEA LEVEL PRESSURE IN INCHES OF HG     <
>     WCI    - WIND CHILL INDEX                            <
>     VSB    - VISIBILITY IN MILES                         <
>     HX     - HEAT INDEX                                  <
>     TC     - TEMPERATURE IN CELSIUS                      <
>     VRB    - VARIABLE WIND DIRECTION                     <
>                                                          <
>>>>>>>>>>>>>>>>>>>>>>>>>>>> KEY <<<<<<<<<<<<<<<<<<<<<<<<<<<




USA.gov is the U.S. government's official web portal to all federal, state and local government web resources and services.